Palmer, AK

12:18 AM AKST on February 18, 2018 (GMT -0900)
Palmer Municipal

Weather History for PAAQ - May, 2013

Change the Weather History Date:

Wednesday, May 22, 2013

  Actual Average Record
Temperature  
Mean Temperature 47 °F -  
Max Temperature 60 °F 59 °F 72 °F (2015)
Min Temperature 35 °F 38 °F 30 °F (1982)
Degree Days  
Heating Degree Days 18    
Moisture  
Dew Point 30 °F    
Average Humidity 54    
Maximum Humidity 76    
Minimum Humidity 30    
Precipitation  
Precipitation 0.00 in - - ()
Sea Level Pressure  
Sea Level Pressure 30.16 in    
Wind  
Wind Speed 4 mph (WNW)    
Max Wind Speed 10 mph    
Max Gust Speed -    
Visibility 10 miles    
Events      
Averages and records for this station are not official NWS values.
T = Trace of Precipitation, MM = Missing Value Source: NWS Daily Summary

Daily Weather History Graph

Daily Weather History Graph

Search for Another Location

Airport or City:

Trip Planner

Search our weather history database for the weather conditions in past years. The results will help you decide how hot, cold, wet, or windy it might be!

Date:

Astronomy

May. 22, 2013 Rise Set
Actual Time 4:47 AM AKDT 11:00 PM AKDT
Civil Twilight 3:22 AM AKDT 12:27 AM AKDT
Nautical Twilight Sun does not rise Sun does not rise
Astronomical Twilight Sun does not rise Sun does not rise
Moon 7:50 PM AKDT (5/22) 3:54 AM AKDT (5/22)
Length of Visible Light 21h 04m
Length of Day
18h 12m
Waxing Gibbous, 92% of the Moon is Illuminated
May 22
Waxing Gibbous
May 24
Full
May 31
Last Quarter
Jun 8
New
Jun 16
First Quarter

Hourly Weather History & Observations

Time (AKDT) Temp. Windchill Dew Point Humidity Pressure Visibility Wind Dir Wind Speed Gust Speed Precip Events Conditions
12:53 AM 39.9 °F - 28.0 °F 63% 30.27 in 10.0 mi Calm Calm - N/A   Clear
1:53 AM 37.9 °F 35.5 °F 28.0 °F 68% 30.26 in 10.0 mi North 3.5 mph - N/A   Clear
2:53 AM 36.0 °F 30.3 °F 28.0 °F 73% 30.24 in 10.0 mi North 6.9 mph - N/A   Clear
3:53 AM 36.0 °F 32.1 °F 28.0 °F 73% 30.24 in 10.0 mi North 4.6 mph - N/A   Clear
4:53 AM 35.1 °F 29.3 °F 28.0 °F 76% 30.23 in 10.0 mi North 6.9 mph - N/A   Clear
5:53 AM 36.0 °F 30.3 °F 28.9 °F 76% 30.22 in 10.0 mi North 6.9 mph - N/A   Mostly Cloudy
6:53 AM 37.0 °F 31.6 °F 28.9 °F 73% 30.20 in 10.0 mi NNW 6.9 mph - N/A   Mostly Cloudy
7:53 AM 39.9 °F 35.8 °F 28.9 °F 65% 30.19 in 10.0 mi NNW 5.8 mph - N/A   Clear
8:53 AM 45.0 °F 43.5 °F 27.0 °F 49% 30.18 in 10.0 mi Variable 3.5 mph - N/A   Partly Cloudy
9:53 AM 48.0 °F - 26.1 °F 42% 30.17 in 10.0 mi Variable 3.5 mph - N/A   Mostly Cloudy
10:53 AM 51.1 °F - 27.0 °F 39% 30.16 in 10.0 mi Variable 4.6 mph - N/A   Mostly Cloudy
11:53 AM 52.0 °F - 27.0 °F 38% 30.15 in 10.0 mi SW 6.9 mph - N/A   Overcast
12:53 PM 53.1 °F - 28.0 °F 38% 30.14 in 10.0 mi Variable 3.5 mph - N/A   Overcast
1:53 PM 55.9 °F - 28.9 °F 36% 30.13 in 10.0 mi Calm Calm - N/A   Mostly Cloudy
2:53 PM 57.0 °F - 26.1 °F 30% 30.12 in 10.0 mi Variable 5.8 mph - N/A   Mostly Cloudy
3:53 PM 57.0 °F - 27.0 °F 32% 30.11 in 10.0 mi SE 5.8 mph - N/A   Mostly Cloudy
4:53 PM 59.0 °F - 30.9 °F 35% 30.10 in 10.0 mi SW 6.9 mph - N/A   Overcast
5:53 PM 57.9 °F - 32.0 °F 37% 30.09 in 10.0 mi SSW 6.9 mph - N/A   Mostly Cloudy
6:53 PM 55.9 °F - 34.0 °F 44% 30.09 in 10.0 mi WSW 6.9 mph - N/A   Overcast
7:53 PM 54.0 °F - 35.1 °F 49% 30.10 in 10.0 mi WSW 10.4 mph - N/A   Overcast
8:53 PM 51.1 °F - 37.0 °F 59% 30.11 in 10.0 mi WSW 6.9 mph - N/A   Overcast
9:53 PM 50.0 °F - 37.0 °F 61% 30.12 in 10.0 mi Variable 3.5 mph - N/A   Overcast
10:53 PM 48.0 °F - 37.9 °F 68% 30.13 in 10.0 mi SW 4.6 mph - N/A   Overcast
11:53 PM 46.9 °F - 37.9 °F 71% 30.14 in 10.0 mi WSW 3.5 mph - N/A   Mostly Cloudy